Flag for Germany Weather past 2 weeks in Garmisch-Partenkirchen, Bavaria, Germany

Now
32 °F

Chilly.


Feels Like: 32 °F
Forecast: 32 / 57 °F
Wind: 1 mph from North

Location: Innsbruck-Flughafen

Current Time: Apr 19, 2015 at 4:11:22 AM

Latest Report: Apr 19, 2015 at 3:50 AM


Visibility: N/A

Pressure: 30.18 "Hg

Humidity: 87%

Dew point: 28 °F

Location of Garmisch-PartenkirchenLocation

Historic Weather in Garmisch-Partenkirchen — Graph

°F

Garmisch-Partenkirchen temperature yesterday

Maximum temperature yesterday: 50 °F (at 12:20 AM)
Minimum temperature yesterday: 36 °F (at 11:50 PM)
Average temperature yesterday: 45 °F

Past Weeks' High & Low Weather Summary

 TemperatureHumidityPressure
High79 °F (Apr 15, 6:20 PM)100% (Apr 4, 8:20 PM)30.57 "Hg (Apr 4, 8:20 PM)
Low27 °F (Apr 7, 7:50 AM)13% (Apr 15, 6:20 PM)29.80 "Hg (Apr 4, 2:50 PM)
Average48 °F67%30.22 "Hg
* Reported Apr 4 2:20 AM — Apr 19 2:50 AM, Garmisch-Partenkirchen, Weather by CustomWeather, © 2015

Note: Actual official high and low records may vary slightly from our data, if they occured in-between our weather recording intervals... More about our weather records

Advertising

Garmisch-Partenkirchen weather history for previous 24 hours

 ConditionsComfort  
Time TempWeatherWind HumidityBarometerVisibility
2:50 AM
Sun, Apr 19
32 °FChilly.2 mph87%30.18 "HgN/A
2:20 AM34 °FChilly.1 mph87%30.18 "HgN/A
1:50 AM34 °FChilly.2 mph81%30.21 "Hg6 mi
1:20 AM34 °FChilly.2 mph87%30.21 "HgN/A
12:50 AM36 °FChilly.1 mph81%30.21 "HgN/A
12:20 AM36 °FChilly.1 mph81%30.21 "HgN/A
11:50 PM
Sat, Apr 18
36 °FChilly.1 mph81%30.21 "HgN/A
11:20 PM37 °FChilly.2 mph81%30.21 "HgN/A
10:50 PM37 °FClear.1 mph81%30.21 "Hg10 mi
10:20 PM39 °FClear.1 mph75%30.21 "Hg10 mi
9:50 PM39 °FPassing clouds.1 mph70%30.18 "HgN/A
9:20 PM39 °FPassing clouds.1 mph70%30.18 "HgN/A
8:50 PM41 °FPassing clouds.2 mph66%30.18 "HgN/A
8:20 PM43 °FPassing clouds.2 mph61%30.15 "HgN/A
7:50 PM43 °FScattered clouds.6 mph66%30.15 "HgN/A
7:20 PM46 °FScattered clouds.10 mph53%30.15 "HgN/A
6:50 PM46 °FScattered clouds.9 mph53%30.15 "HgN/A
6:20 PM48 °FScattered clouds.8 mph50%30.15 "HgN/A
5:50 PM48 °FPartly sunny.13 mph54%30.15 "HgN/A
5:20 PM48 °FPartly sunny.14 mph54%30.15 "HgN/A
4:50 PM48 °FBroken clouds.12 mph50%30.15 "HgN/A
4:20 PM50 °FBroken clouds.6 mph43%30.15 "HgN/A
3:50 PM48 °FPartly sunny.8 mph50%30.15 "HgN/A
3:20 PM50 °FBroken clouds.8 mph50%30.15 "HgN/A
2:50 PM48 °FBroken clouds.9 mph58%30.15 "HgN/A
2:20 PM48 °FBroken clouds.10 mph58%30.15 "HgN/A
1:50 PM46 °FBroken clouds.12 mph62%30.15 "HgN/A
1:20 PM46 °FBroken clouds.10 mph57%30.15 "HgN/A
12:50 PM46 °FBroken clouds.9 mph57%30.15 "HgN/A
12:20 PM45 °FBroken clouds.8 mph66%30.15 "HgN/A
11:50 AM45 °FBroken clouds.9 mph66%30.15 "HgN/A
11:20 AM45 °FPartly sunny.2 mph81%30.12 "HgN/A
10:50 AM45 °FBroken clouds.3 mph81%30.12 "HgN/A
10:20 AM45 °FBroken clouds.2 mph81%30.09 "HgN/A
9:50 AM43 °FBroken clouds.2 mph87%30.09 "HgN/A
9:20 AM43 °FBroken clouds.5 mph87%30.09 "HgN/A
8:50 AM43 °FScattered showers. Partly sunny.5 mph87%30.07 "HgN/A
8:20 AM43 °FBroken clouds.5 mph87%30.07 "HgN/A
7:50 AM43 °FDrizzle. Broken clouds.3 mph87%30.07 "HgN/A
7:20 AM43 °FPartly cloudy.5 mph93%30.07 "Hg6 mi
6:50 AM43 °FPartly cloudy.7 mph87%30.04 "HgN/A
6:20 AM43 °FPartly cloudy.6 mph93%30.04 "Hg5 mi
5:50 AM45 °FLight rain. Partly cloudy.7 mph87%30.04 "Hg5 mi
5:20 AM45 °FLight rain. Passing clouds.3 mph93%30.04 "HgN/A
4:50 AM45 °FLight rain. Passing clouds.5 mph93%30.04 "HgN/A
4:20 AM46 °FLight rain. Partly cloudy.1 mph93%30.01 "HgN/A
Weather by CustomWeather, © 2015

See weather overviewHow to use our weather pages